Location: Campillo
(40.8621°N, 4.2488°W)
Time: 17:37:22
(UTC+00:00)

Cosmos 1933 Rocket - Pass Details

Date: 26 September 2021
Orbit: 607 x 629 km, 82.5° (Epoch: 15 October)

Event Time Altitude Azimuth Distance (km) Brightness Sun altitude
Rises 04:55:54 0° 339° (NNW) 2,899 6.9 -14.5°
Reaches altitude 10° 04:58:23 10° 327° (NNW) 1,993 5.9 -14.0°
Maximum altitude 05:02:04 26° 271° (W) 1,219 4.5 -13.3°
Drops below altitude 10° 05:05:45 10° 214° (SW) 1,991 5.8 -12.7°
Sets 05:08:14 0° 202° (SSW) 2,896 6.7 -12.2°
